Regional Weather Roundup
Issued by NWS Green Bay, WI

Home | Current Version | Previous Version | Text Only | Print | Product List | Glossary On
Versions: 1 2 3 4 5 6 7 8 9 10 11 12 13 14 15 16 17 18 19 20 21 22 23 24 25 26 27 28 29 30 31 32 33 34 35 36 37 38 39 40 41 42 43 44 45 46 47 48 49 50
000
ASUS43 KGRB 270611
RWRGRB

NORTH-CENTRAL AND NORTHEAST WISCONSIN REGIONAL WEATHER ROUNDUP
NATIONAL WEATHER SERVICE GREEN BAY WI
100 AM CDT MON MAR 27 2017

WIZ005-009-010>012-018-019-270700-
NORTH CENTRAL WISCONSIN

CITY           SKY/WX    TMP DP  RH WIND       PRES   REMARKS
IRONWOOD       FOG       32  31  96 CALM      29.92R VSB 1/4
MANITOWISH WTR CLOUDY    32  32 100 NW3       29.89S
ARBOR VITAE    CLOUDY    34  33  96 NW5       29.87F
EAGLE RIVER    CLOUDY    33  33 100 N5        29.86F
LAND O LAKES   CLOUDY    33  33 100 N7        29.89R
RHINELANDER    CLOUDY    36  35  96 CALM      29.87S
PHILLIPS       CLOUDY    32  32 100 CALM      29.89S
ANTIGO         CLOUDY    35  35 100 CALM      29.87S
TOMAHAWK       CLOUDY    34  33  96 NW3       29.89S
MERRILL        CLOUDY    37  37 100 CALM      29.88F
$$

WIZ013-073-270700-
NORTHEAST WISCONSIN

CITY           SKY/WX    TMP DP  RH WIND       PRES   REMARKS
IRON MOUNTAIN  CLOUDY    35  32  88 NW6       29.85R
MARINETTE        N/A    N/A N/A N/A MISG        N/A
OCONTO         CLOUDY    36  35  99 W3        29.88S
$$

WIZ017-030-035>037-045-270700-
CENTRAL WISCONSIN

CITY           SKY/WX    TMP DP  RH WIND       PRES   REMARKS
MEDFORD        CLOUDY    36  35  97 NW3       29.88S
WAUSAU         CLOUDY    38  38 100 N3        29.86F
MOSINEE        CLOUDY    36  36 100 CALM      29.88F
MARSHFIELD     CLOUDY    38  37  97 NW5       29.87F FOG
WISC RAPIDS    CLOUDY    39  39 100 W3        29.90F
STEVENS POINT  CLOUDY    37  37 100 CALM      29.88F FOG
WAUPACA        CLOUDY    40  38  96 CALM      29.89S
SHAWANO        DRIZZLE   38  37  94 CALM      29.89F
CLINTONVILLE   CLOUDY    36  36 100 W3        29.89S
WAUTOMA        CLOUDY    39  38  96 CALM      29.89F
$$

WIZ038-039-048-051-270700-
FOX VALLEY

CITY           SKY/WX    TMP DP  RH WIND       PRES   REMARKS
NWS GREEN BAY  CLOUDY    37  37 100 NW3       29.88F
APPLETON       CLOUDY    36  36 100 NW3       29.86F
OSHKOSH        CLOUDY    38  37  97 NW6       29.87F
FOND DU LAC    LGT RAIN  39  36  89 NW5       29.88F
$$

WIZ022-050-052-270700-
EAST CENTRAL WISCONSIN

CITY           SKY/WX    TMP DP  RH WIND       PRES   REMARKS
EPHRAIM        FOG       34  34 100 N5        29.85R VSB 3/4
WASHINGTON ISL CLOUDY    33  33 100 N8        29.84F FOG
STURGEON BAY   FOG       34  34 100 NW6       29.88R VSB 1/2
MANITOWOC      CLOUDY    37  36  96 NW6       29.88S
SHEBOYGAN      CLOUDY    38  36  92 NW3       29.87F
$$

LMZ563-521-522-541>543-270700-
LAKESHORE

STATION/POSITION TIME  TEMP    WIND        PRES    VSBY  WAVE
                       AIR SEA DIR/SP/G                  HT/PER
                 (UTC) (F)     (DEG/KT/KT) (MB)    (MI)  (FT/S)
SHEBOYGAN LKSHOR 0600   39     310/  5/  6 1011.8F
KEWAUNEE LKSHORE 0548   36     310/  3/  6 1011.1S
NORTHPORT PIER   0540   33     320/  7/  9 1011.2S
CHAMBERS ISLAND  0540   35     280/  3/  6 1011.2S
MENOMINEE LKSHOR 0548   36     280/  5/  7 1010.9R
$$




USA.gov is the U.S. government's official web portal to all federal, state and local government web resources and services.